| time (UTC) | temp C | wind direction | speed KPH | gust KPH | rain 1hr cm | rain 24hr cm | rain mn cm | humidity % | barometer mb |
| 20260504204616 | 27 | 219 | 8.0 | 22.5 | 0.00 | 0.13 | 0.13 | 47 | 998.0 |
| 20260504203616 | 27 | 229 | 8.0 | 20.9 | 0.00 | 0.13 | 0.13 | 47 | 998.0 |
| 20260504202544 | 27 | 240 | 9.7 | 22.5 | 0.00 | 0.13 | 0.13 | 48 | 998.3 |
| 20260504201543 | 27 | 229 | 6.4 | 22.5 | 0.00 | 0.13 | 0.13 | 48 | 998.3 |
| 20260504200543 | 26 | 224 | 9.7 | 29.0 | 0.00 | 0.13 | 0.13 | 49 | 998.6 |
| 20260504195542 | 26 | 240 | 11.3 | 25.7 | 0.00 | 0.13 | 0.13 | 48 | 998.6 |
| 20260504194542 | 26 | 241 | 14.5 | 35.4 | 0.00 | 0.13 | 0.13 | 49 | 998.6 |
| 20260504193541 | 26 | 232 | 12.9 | 30.6 | 0.00 | 0.13 | 0.13 | 49 | 998.6 |
| 20260504192540 | 26 | 227 | 11.3 | 19.3 | 0.00 | 0.13 | 0.13 | 48 | 999.0 |
| 20260504191540 | 26 | 213 | 9.7 | 22.5 | 0.00 | 0.13 | 0.13 | 49 | 999.0 |
| 20260504190539 | 26 | 233 | 8.0 | 25.7 | 0.00 | 0.13 | 0.13 | 50 | 999.0 |
| 20260504185507 | 26 | 247 | 12.9 | 22.5 | 0.00 | 0.13 | 0.13 | 49 | 999.0 |
| 20260504184507 | 26 | 242 | 12.9 | 22.5 | 0.00 | 0.13 | 0.13 | 49 | 998.6 |
| 20260504183506 | 26 | 182 | 8.0 | 24.1 | 0.00 | 0.13 | 0.13 | 50 | 998.6 |
| 20260504182505 | 25 | 197 | 9.7 | 20.9 | 0.00 | 0.13 | 0.13 | 49 | 998.6 |
| 20260504181505 | 25 | 243 | 8.0 | 30.6 | 0.00 | 0.13 | 0.13 | 51 | 999.0 |
| 20260504180433 | 25 | 232 | 14.5 | 33.8 | 0.00 | 0.13 | 0.13 | 49 | 999.0 |
| 20260504175432 | 25 | 234 | 9.7 | 19.3 | 0.00 | 0.13 | 0.13 | 50 | 999.0 |
| 20260504174431 | 25 | 207 | 9.7 | 20.9 | 0.00 | 0.13 | 0.13 | 51 | 999.3 |
| 20260504173431 | 25 | 218 | 9.7 | 20.9 | 0.00 | 0.13 | 0.13 | 52 | 999.3 |
| 20260504172430 | 25 | 231 | 17.7 | 30.6 | 0.00 | 0.13 | 0.13 | 50 | 999.3 |
| 20260504171430 | 25 | 224 | 8.0 | 22.5 | 0.00 | 0.13 | 0.13 | 52 | 999.7 |
| 20260504170429 | 25 | 226 | 9.7 | 16.1 | 0.00 | 0.13 | 0.13 | 52 | 999.7 |
| 20260504160322 | 23 | 233 | 14.5 | 25.7 | 0.00 | 0.13 | 0.13 | 54 | 1000.3 |
| 20260504150318 | 22 | 235 | 9.7 | 22.5 | 0.00 | 0.13 | 0.13 | 60 | 1000.7 |
| 20260504141213 | 20 | 234 | 8.0 | 14.5 | 0.00 | 0.13 | 0.13 | 67 | 1001.0 |
| 20260504140213 | 19 | 234 | 8.0 | 16.1 | 0.00 | 0.13 | 0.13 | 69 | 1001.0 |
| 20260504130208 | 17 | 223 | 6.4 | 9.7 | 0.00 | 0.13 | 0.13 | 75 | 1001.4 |
| 20260504120204 | 17 | 331 | 0.0 | 8.0 | 0.00 | 0.13 | 0.13 | 70 | 1001.4 |
| 20260504081843 | 13 | 197 | 0.0 | 0.0 | 0.03 | 0.13 | 0.13 | 89 | 1003.4 |
| 20260504080843 | 13 | 197 | 0.0 | 0.0 | 0.05 | 0.13 | 0.13 | 89 | 1003.7 |
| 20260504050556 | 15 | 265 | 3.2 | 4.8 | 0.00 | 0.00 | 0.00 | 74 | 1004.7 |
| 20260504045555 | 15 | 275 | 0.0 | 0.0 | 0.00 | 0.00 | 0.00 | 74 | 1005.1 |
| 20260504044554 | 15 | 275 | 0.0 | 0.0 | 0.00 | 0.00 | 0.00 | 74 | 1005.1 |
| 20260504043554 | 15 | 275 | 0.0 | 0.0 | 0.00 | 0.00 | 0.00 | 74 | 1005.1 |
| 20260504042554 | 15 | 275 | 0.0 | 0.0 | 0.00 | 0.00 | 0.00 | 73 | 1005.1 |
| 20260504041552 | 15 | 275 | 0.0 | 1.6 | 0.00 | 0.00 | 0.00 | 73 | 1005.1 |
| 20260504040552 | 15 | 275 | 0.0 | 0.0 | 0.00 | 0.00 | 0.00 | 71 | 1005.4 |
| 20260504035551 | 16 | 275 | 0.0 | 0.0 | 0.00 | 0.00 | 0.00 | 70 | 1005.4 |
| 20260504034551 | 16 | 275 | 0.0 | 0.0 | 0.00 | 0.00 | 0.00 | 69 | 1005.4 |
| 20260504033550 | 16 | 275 | 0.0 | 0.0 | 0.00 | 0.00 | 0.00 | 68 | 1005.4 |
| 20260504032518 | 16 | 275 | 0.0 | 0.0 | 0.00 | 0.00 | 0.00 | 67 | 1005.4 |
| 20260504031518 | 17 | 275 | 0.0 | 0.0 | 0.00 | 0.00 | 0.00 | 66 | 1005.4 |
| 20260504030415 | 17 | 275 | 0.0 | 0.0 | 0.00 | 0.00 | 0.00 | 66 | 1005.4 |
| 20260504025414 | 17 | 275 | 0.0 | 0.0 | 0.00 | 0.00 | 0.00 | 65 | 1005.4 |
| 20260504024414 | 17 | 275 | 0.0 | 0.0 | 0.00 | 0.00 | 0.00 | 64 | 1005.4 |
| 20260504023413 | 17 | 275 | 0.0 | 0.0 | 0.00 | 0.00 | 0.00 | 64 | 1005.4 |
| 20260504022412 | 18 | 275 | 0.0 | 0.0 | 0.00 | 0.00 | 0.00 | 63 | 1005.1 |
| 20260504021411 | 18 | 275 | 0.0 | 0.0 | 0.00 | 0.00 | 0.00 | 62 | 1005.4 |
| 20260504020411 | 18 | 275 | 0.0 | 0.0 | 0.00 | 0.00 | 0.00 | 61 | 1005.4 |
| 20260504015410 | 18 | 275 | 0.0 | 0.0 | 0.00 | 0.00 | 0.00 | 60 | 1005.4 |
| 20260504014409 | 19 | 275 | 0.0 | 0.0 | 0.00 | 0.00 | 0.00 | 60 | 1005.4 |
| 20260504013409 | 20 | 275 | 0.0 | 0.0 | 0.00 | 0.00 | 0.00 | 58 | 1005.4 |
| 20260504012408 | 20 | 275 | 0.0 | 0.0 | 0.00 | 0.00 | 0.00 | 58 | 1005.1 |
| 20260504011407 | 20 | 275 | 0.0 | 0.0 | 0.00 | 0.00 | 0.00 | 57 | 1005.4 |
| 20260504010407 | 20 | 275 | 0.0 | 0.0 | 0.00 | 0.00 | 0.00 | 56 | 1005.4 |
| 20260504005406 | 20 | 275 | 0.0 | 0.0 | 0.00 | 0.00 | 0.00 | 54 | 1005.1 |
| 20260504004406 | 21 | 275 | 0.0 | 0.0 | 0.00 | 0.00 | 0.00 | 54 | 1005.1 |
| 20260504003405 | 21 | 275 | 0.0 | 3.2 | 0.00 | 0.00 | 0.00 | 54 | 1005.4 |
| 20260504002405 | 21 | 274 | 6.4 | 11.3 | 0.00 | 0.00 | 0.00 | 53 | 1005.4 |
| 20260504001404 | 21 | 271 | 1.6 | 9.7 | 0.00 | 0.00 | 0.00 | 53 | 1005.8 |
| 20260504000404 | 21 | 274 | 1.6 | 1.6 | 0.00 | 0.00 | 0.00 | 52 | 1005.4 |
| 20260503235403 | 21 | 274 | 0.0 | 1.6 | 0.00 | 0.00 | 0.00 | 51 | 1005.8 |
| 20260503234332 | 21 | 274 | 0.0 | 0.0 | 0.00 | 0.00 | 0.00 | 51 | 1005.4 |
| 20260503233331 | 22 | 274 | 0.0 | 4.8 | 0.00 | 0.00 | 0.00 | 50 | 1005.8 |
| 20260503232330 | 22 | 263 | 0.0 | 6.4 | 0.00 | 0.00 | 0.00 | 50 | 1005.4 |
| 20260503231329 | 22 | 263 | 1.6 | 16.1 | 0.00 | 0.00 | 0.00 | 50 | 1005.8 |
| 20260503230329 | 22 | 284 | 4.8 | 14.5 | 0.00 | 0.00 | 0.00 | 50 | 1005.8 |
| 20260503225328 | 22 | 299 | 6.4 | 12.9 | 0.00 | 0.00 | 0.00 | 52 | 1005.8 |
| 20260503224327 | 22 | 266 | 8.0 | 17.7 | 0.00 | 0.00 | 0.00 | 51 | 1005.8 |
| 20260503223327 | 22 | 277 | 6.4 | 17.7 | 0.00 | 0.00 | 0.00 | 51 | 1006.1 |
| 20260503222326 | 22 | 252 | 8.0 | 16.1 | 0.00 | 0.00 | 0.00 | 50 | 1006.1 |
| 20260503221326 | 22 | 274 | 12.9 | 19.3 | 0.00 | 0.00 | 0.00 | 50 | 1006.1 |
| 20260503220325 | 22 | 270 | 8.0 | 12.9 | 0.00 | 0.00 | 0.00 | 50 | 1005.8 |
| 20260503215324 | 22 | 254 | 8.0 | 16.1 | 0.00 | 0.00 | 0.00 | 50 | 1005.4 |
| 20260503214253 | 22 | 266 | 4.8 | 20.9 | 0.00 | 0.00 | 0.00 | 50 | 1005.8 |
| 20260503213252 | 22 | 266 | 9.7 | 19.3 | 0.00 | 0.00 | 0.00 | 49 | 1006.1 |
| 20260503212251 | 22 | 256 | 9.7 | 22.5 | 0.00 | 0.00 | 0.00 | 48 | 1005.8 |
| 20260503211251 | 23 | 265 | 11.3 | 25.7 | 0.00 | 0.00 | 0.00 | 47 | 1006.1 |
| 20260503210250 | 23 | 259 | 16.1 | 37.0 | 0.00 | 0.00 | 0.00 | 46 | 1006.4 |